User: anonymous   Login
Location: Mauna Kea VIS
(19.7591°N, 155.4561°W)
Time: 08:06:36
(UTC-10:00)
Language:

Cosmos 1624 Rocket - Orbit

View from above orbital plane
View from above orbital plane
View from above satellite
View from above satellite

Ground track
Ground track

The orbit data is extracted from the following two-line orbital elements,

1 15483U 85006B   17269.33314509  .00000041  00000-0  22839-4 0  9996
2 15483  74.0468 169.6355 0017971 128.0836  11.1634 14.36196666711070
Epoch (UTC): 26 September 2017 07:59:43
Eccentricity: 0.0017971
inclination: 74.0468°
perigee height: 758 km
apogee height: 784 km
right ascension of ascending node: 169.6355°
argument of perigee: 128.0836°
revolutions per day: 14.36196666
mean anomaly at epoch: 11.1634°
orbit number at epoch: 71107

The dashed part of the orbit path shows where the satellite is in the earth's shadow,  

DLR